�������l�o���
Date,Time,MP-1(��Sv/h),MP-2(��Sv/h),MP-3(��Sv/h),MP-4(��Sv/h),MP-5(��Sv/h),MP-6(��Sv/h),MP-7(��Sv/h),MP-8(��Sv/h),����,����(m/s),���J
2017/08/19,00:00,0.921,1.442,0.956,1.732,1.176,0.508,0.925,0.857,�k�k��,0.6,��
2017/08/19,00:10,0.919,1.444,0.955,1.732,1.177,0.507,0.926,0.857,�k,1.2,��
2017/08/19,00:20,0.921,1.443,0.957,1.732,1.175,0.508,0.927,0.858,�k,1.7,�L
2017/08/19,00:30,0.920,1.442,0.957,1.732,1.178,0.506,0.927,0.858,�k,1.7,�L
2017/08/19,00:40,0.922,1.442,0.959,1.730,1.175,0.506,0.926,0.857,�k,1.2,��
2017/08/19,00:50,0.918,1.440,0.956,1.730,1.175,0.507,0.926,0.858,�k�k��,1.5,�L
2017/08/19,01:00,0.918,1.437,0.957,1.731,1.173,0.507,0.926,0.856,�k�k��,1.2,�L
2017/08/19,01:10,0.915,1.437,0.958,1.730,1.174,0.506,0.924,0.858,�k,1.7,�L
2017/08/19,01:20,0.913,1.434,0.956,1.731,1.173,0.507,0.925,0.857,�k�k��,2.2,�L
2017/08/19,01:30,0.916,1.434,0.956,1.730,1.178,0.506,0.927,0.860,�k�k��,2.6,��
2017/08/19,01:40,0.914,1.437,0.954,1.730,1.173,0.507,0.927,0.857,�k�k��,3.0,��
2017/08/19,01:50,0.915,1.434,0.955,1.734,1.173,0.507,0.927,0.859,�k,3.3,��
2017/08/19,02:00,0.915,1.433,0.954,1.730,1.175,0.507,0.927,0.858,�k,3.4,��
2017/08/19,02:10,0.915,1.435,0.955,1.733,1.173,0.506,0.927,0.858,�k,2.5,��
2017/08/19,02:20,0.913,1.436,0.957,1.732,1.174,0.506,0.925,0.861,�k�k��,2.9,��
2017/08/19,02:30,0.914,1.435,0.956,1.731,1.174,0.506,0.927,0.860,�k�k��,2.6,��
2017/08/19,02:40,0.913,1.433,0.956,1.730,1.175,0.507,0.927,0.860,�k�k��,2.6,��
2017/08/19,02:50,0.914,1.434,0.957,1.734,1.172,0.506,0.925,0.859,�k�k��,3.3,��
2017/08/19,03:00,0.916,1.438,0.956,1.731,1.174,0.506,0.927,0.859,�k�k��,2.9,��
2017/08/19,03:10,0.914,1.437,0.955,1.730,1.172,0.506,0.927,0.860,�k,2.3,��
2017/08/19,03:20,0.916,1.435,0.954,1.730,1.173,0.506,0.927,0.859,�k,1.2,��
2017/08/19,03:30,0.914,1.434,0.955,1.730,1.175,0.505,0.924,0.857,�k,1.9,��
2017/08/19,03:40,0.914,1.435,0.956,1.731,1.173,0.507,0.926,0.858,�k,2.5,��
2017/08/19,03:50,0.914,1.435,0.956,1.729,1.174,0.506,0.924,0.858,�k�k��,3.2,�L
2017/08/19,04:00,0.913,1.434,0.954,1.731,1.173,0.507,0.925,0.858,�k�k��,3.3,�L
2017/08/19,04:10,0.913,1.437,0.955,1.731,1.173,0.507,0.926,0.858,�k�k��,3.0,�L
2017/08/19,04:20,0.915,1.435,0.955,1.728,1.175,0.506,0.925,0.857,�k�k��,3.0,�L
2017/08/19,04:30,0.915,1.434,0.955,1.730,1.172,0.508,0.924,0.858,�k�k��,3.1,��
2017/08/19,04:40,0.915,1.435,0.954,1.729,1.172,0.508,0.926,0.859,�k�k��,3.0,�L
2017/08/19,04:50,0.915,1.434,0.955,1.729,1.172,0.505,0.925,0.858,�k�k��,2.3,�L
2017/08/19,05:00,0.913,1.432,0.954,1.730,1.174,0.507,0.926,0.858,�k�k��,3.1,�L
2017/08/19,05:10,0.912,1.434,0.954,1.729,1.172,0.505,0.925,0.858,�k�k��,3.0,�L
2017/08/19,05:20,0.913,1.434,0.952,1.728,1.173,0.506,0.924,0.860,�k�k��,2.8,�L
2017/08/19,05:30,0.913,1.433,0.953,1.729,1.171,0.507,0.926,0.855,�k�k��,2.6,�L
2017/08/19,05:40,0.913,1.433,0.955,1.727,1.170,0.506,0.925,0.855,�k�k��,2.5,�L
2017/08/19,05:50,0.913,1.431,0.954,1.727,1.171,0.506,0.923,0.857,�k�k��,2.6,�L
2017/08/19,06:00,0.914,1.432,0.951,1.728,1.171,0.507,0.924,0.857,�k�k��,3.4,�L
2017/08/19,06:10,0.913,1.432,0.954,1.726,1.170,0.506,0.922,0.856,�k�k��,3.6,�L
2017/08/19,06:20,0.914,1.432,0.954,1.727,1.170,0.505,0.924,0.858,�k�k��,3.1,�L
2017/08/19,06:30,0.913,1.431,0.951,1.726,1.170,0.505,0.923,0.858,�k�k��,2.6,�L
2017/08/19,06:40,0.913,1.431,0.954,1.726,1.171,0.507,0.925,0.856,�k�k��,2.5,�L
2017/08/19,06:50,0.915,1.432,0.952,1.728,1.171,0.507,0.923,0.858,�k,2.9,�L
2017/08/19,07:00,0.913,1.433,0.952,1.730,1.171,0.506,0.924,0.858,�k,3.3,��
2017/08/19,07:10,0.913,1.434,0.954,1.725,1.170,0.505,0.923,0.858,�k,2.6,�L
2017/08/19,07:20,0.915,1.435,0.954,1.727,1.172,0.507,0.923,0.858,�k,3.4,�L
2017/08/19,07:30,0.914,1.434,0.955,1.726,1.174,0.507,0.925,0.859,�k�k��,3.8,��
2017/08/19,07:40,0.913,1.434,0.952,1.727,1.170,0.506,0.925,0.858,�k,3.7,��
2017/08/19,07:50,0.915,1.435,0.952,1.729,1.172,0.505,0.923,0.857,�k,3.5,��
2017/08/19,08:00,0.913,1.434,0.953,1.725,1.172,0.506,0.924,0.857,�k,3.0,�L
2017/08/19,08:10,0.913,1.434,0.952,1.727,1.173,0.504,0.922,0.857,�k,2.9,�L
2017/08/19,08:20,0.915,1.433,0.954,1.726,1.172,0.505,0.925,0.857,�k,3.3,�L
2017/08/19,08:30,0.914,1.436,0.954,1.728,1.171,0.504,0.924,0.856,�k�k��,2.6,�L
2017/08/19,08:40,0.914,1.435,0.957,1.726,1.169,0.503,0.923,0.857,�k,3.0,�L
2017/08/19,08:50,0.917,1.434,0.952,1.726,1.174,0.505,0.925,0.856,�k,3.1,�L
2017/08/19,09:00,0.914,1.435,0.954,1.725,1.174,0.506,0.926,0.858,�k,2.8,�L
2017/08/19,09:10,0.914,1.436,0.955,1.729,1.173,0.506,0.926,0.857,�k,3.8,�L
2017/08/19,09:20,0.912,1.434,0.954,1.730,1.173,0.505,0.924,0.856,�k,2.9,�L
2017/08/19,09:30,0.915,1.434,0.952,1.729,1.173,0.505,0.926,0.858,�k�k��,3.5,�L
2017/08/19,09:40,0.913,1.435,0.955,1.727,1.172,0.505,0.927,0.857,�k�k��,4.3,�L
2017/08/19,09:50,0.913,1.436,0.952,1.728,1.173,0.506,0.924,0.857,�k�k��,3.8,�L
2017/08/19,10:00,0.914,1.435,0.953,1.726,1.175,0.505,0.927,0.856,�k�k��,3.4,�L
2017/08/19,10:10,0.915,1.435,0.954,1.729,1.175,0.505,0.925,0.855,�k�k��,4.5,�L
2017/08/19,10:20,0.913,1.437,0.954,1.725,1.176,0.505,0.925,0.857,�k�k��,4.6,�L
2017/08/19,10:30,0.914,1.438,0.953,1.725,1.174,0.506,0.926,0.858,�k�k��,3.7,�L
2017/08/19,10:40,0.914,1.438,0.957,1.729,1.174,0.507,0.924,0.856,�k�k��,4.1,�L
2017/08/19,10:50,0.916,1.438,0.955,1.729,1.176,0.508,0.925,0.858,�k,3.1,�L
2017/08/19,11:00,0.914,1.437,0.954,1.731,1.175,0.507,0.925,0.858,�k,2.9,�L
2017/08/19,11:10,0.914,1.437,0.954,1.730,1.174,0.507,0.925,0.859,�k�k��,3.7,�L
2017/08/19,11:20,0.916,1.435,0.954,1.730,1.175,0.506,0.923,0.856,�k,4.2,�L
2017/08/19,11:30,0.916,1.436,0.955,1.729,1.177,0.507,0.924,0.858,�k�k��,3.6,�L
2017/08/19,11:40,0.914,1.436,0.956,1.727,1.177,0.506,0.927,0.857,�k�k��,3.0,�L
2017/08/19,11:50,0.915,1.438,0.957,1.730,1.175,0.505,0.924,0.856,�k�k��,3.2,�L
2017/08/19,12:00,0.916,1.438,0.954,1.731,1.177,0.506,0.926,0.857,�k�k��,2.9,��
2017/08/19,12:10,0.916,1.436,0.957,1.728,1.175,0.507,0.925,0.858,�k�k��,3.4,��
2017/08/19,12:20,0.916,1.436,0.958,1.729,1.176,0.507,0.927,0.858,�k,3.8,��
2017/08/19,12:30,0.917,1.438,0.955,1.728,1.176,0.505,0.927,0.858,�k,4.5,�L
2017/08/19,12:40,0.916,1.439,0.955,1.730,1.176,0.506,0.926,0.856,�k�k��,4.2,�L
2017/08/19,12:50,0.916,1.435,0.954,1.731,1.174,0.507,0.927,0.857,�k�k��,4.2,�L
2017/08/19,13:00,0.916,1.435,0.953,1.729,1.172,0.507,0.926,0.856,�k�k��,6.2,�L
2017/08/19,13:10,0.918,1.431,0.953,1.726,1.172,0.508,0.924,0.856,�k,6.5,�L
2017/08/19,13:20,0.915,1.426,0.950,1.720,1.165,0.510,0.923,0.852,�k��,3.4,�L
2017/08/19,13:30,0.914,1.423,0.952,1.715,1.166,0.510,0.921,0.853,�k�k��,7.9,�L
2017/08/19,13:40,0.915,1.423,0.954,1.713,1.166,0.513,0.921,0.853,�k,7.6,�L
2017/08/19,13:50,0.916,1.426,0.956,1.710,1.167,0.511,0.921,0.853,�k,5.8,�L
2017/08/19,14:00,0.916,1.425,0.953,1.711,1.165,0.511,0.921,0.852,�k,5.0,�L
2017/08/19,14:10,0.913,1.424,0.951,1.708,1.165,0.510,0.921,0.853,�k,5.0,�L
2017/08/19,14:20,0.913,1.424,0.951,1.710,1.165,0.509,0.920,0.852,�k,4.0,��
2017/08/19,14:30,0.910,1.424,0.950,1.712,1.166,0.509,0.920,0.853,�k,4.1,��
2017/08/19,14:40,0.913,1.424,0.948,1.711,1.165,0.506,0.920,0.853,�k,4.1,�L
2017/08/19,14:50,0.910,1.422,0.947,1.710,1.166,0.506,0.920,0.852,�k,4.6,�L
2017/08/19,15:00,0.908,1.421,0.944,1.706,1.162,0.505,0.919,0.852,�k,4.2,�L
2017/08/19,15:10,0.909,1.420,0.944,1.704,1.158,0.505,0.916,0.852,�k,5.2,�L
2017/08/19,15:20,0.907,1.420,0.943,1.704,1.158,0.504,0.917,0.851,�k,5.9,�L
2017/08/19,15:30,0.906,1.419,0.943,1.705,1.158,0.501,0.918,0.851,�k,5.4,�L
2017/08/19,15:40,0.908,1.419,0.940,1.704,1.160,0.502,0.917,0.852,�k�k��,6.0,�L
2017/08/19,15:50,0.907,1.417,0.942,1.706,1.159,0.501,0.917,0.850,�k,5.8,�L
2017/08/19,16:00,0.907,1.415,0.941,1.706,1.158,0.503,0.917,0.851,�k,5.3,�L
2017/08/19,16:10,0.904,1.418,0.941,1.702,1.158,0.501,0.918,0.850,�k,4.6,�L
2017/08/19,16:20,0.903,1.418,0.941,1.700,1.156,0.501,0.916,0.849,�k,5.4,�L
2017/08/19,16:30,0.905,1.419,0.939,1.700,1.155,0.501,0.917,0.850,�k,4.1,�L
2017/08/19,16:40,0.905,1.416,0.940,1.701,1.155,0.501,0.916,0.850,�k,4.7,�L
2017/08/19,16:50,0.905,1.419,0.941,1.702,1.155,0.500,0.915,0.849,�k�k��,4.7,�L
2017/08/19,17:00,0.906,1.418,0.942,1.701,1.158,0.501,0.917,0.849,�k,4.7,�L
2017/08/19,17:10,0.905,1.419,0.940,1.700,1.156,0.502,0.918,0.850,�k�k��,5.0,�L
2017/08/19,17:20,0.904,1.417,0.939,1.703,1.158,0.501,0.916,0.849,�k�k��,4.3,�L
2017/08/19,17:30,0.904,1.417,0.942,1.702,1.158,0.501,0.917,0.849,�k�k��,4.3,��
2017/08/19,17:40,0.906,1.419,0.941,1.704,1.158,0.502,0.918,0.849,�k�k��,4.3,��
2017/08/19,17:50,0.905,1.420,0.943,1.705,1.159,0.503,0.916,0.849,�k�k��,4.0,�L
2017/08/19,18:00,0.908,1.421,0.945,1.703,1.159,0.505,0.918,0.850,�k�k��,3.1,�L
2017/08/19,18:10,0.907,1.422,0.944,1.704,1.158,0.504,0.918,0.853,�k�k��,4.0,��
2017/08/19,18:20,0.907,1.420,0.945,1.702,1.161,0.502,0.916,0.853,�k�k��,4.1,�L
2017/08/19,18:30,0.907,1.420,0.945,1.706,1.163,0.503,0.916,0.853,�k�k��,3.5,�L
2017/08/19,18:40,0.907,1.419,0.946,1.707,1.162,0.503,0.917,0.852,�k�k��,3.0,�L
2017/08/19,18:50,0.906,1.423,0.945,1.705,1.161,0.504,0.916,0.852,�k�k��,3.4,�L
2017/08/19,19:00,0.907,1.423,0.944,1.706,1.162,0.502,0.917,0.851,�k�k��,2.2,�L
2017/08/19,19:10,0.907,1.424,0.942,1.705,1.161,0.504,0.918,0.853,�k��,2.2,��
2017/08/19,19:20,0.908,1.424,0.945,1.704,1.162,0.503,0.916,0.853,�k�k��,3.0,�L
2017/08/19,19:30,0.908,1.420,0.943,1.707,1.161,0.504,0.916,0.853,�k��,3.6,�L
2017/08/19,19:40,0.908,1.421,0.945,1.706,1.159,0.503,0.915,0.853,�k�k��,3.6,�L
2017/08/19,19:50,0.905,1.419,0.943,1.705,1.159,0.503,0.917,0.852,�k�k��,4.2,�L
2017/08/19,20:00,0.906,1.419,0.942,1.704,1.161,0.501,0.916,0.851,�k�k��,4.1,�L
2017/08/19,20:10,0.904,1.417,0.942,1.705,1.161,0.503,0.915,0.851,�k��,4.2,�L
2017/08/19,20:20,0.903,1.415,0.942,1.700,1.159,0.503,0.914,0.852,�k��,3.7,�L
2017/08/19,20:30,0.903,1.417,0.942,1.698,1.162,0.503,0.917,0.852,�k��,4.9,�L
2017/08/19,20:40,0.903,1.417,0.941,1.699,1.161,0.500,0.914,0.851,�k�k��,4.8,�L
2017/08/19,20:50,0.904,1.417,0.944,1.698,1.161,0.501,0.916,0.850,�k�k��,4.7,�L
2017/08/19,21:00,0.902,1.417,0.940,1.698,1.161,0.504,0.915,0.853,�k�k��,4.5,�L
2017/08/19,21:10,0.902,1.416,0.940,1.699,1.161,0.503,0.916,0.850,�k��,4.2,�L
2017/08/19,21:20,0.902,1.417,0.943,1.699,1.160,0.502,0.916,0.851,�k��,4.1,�L
2017/08/19,21:30,0.906,1.416,0.941,1.700,1.160,0.502,0.916,0.851,�k��,4.5,��
2017/08/19,21:40,0.905,1.417,0.941,1.699,1.160,0.502,0.915,0.853,�k�k��,4.7,��
2017/08/19,21:50,0.904,1.418,0.944,1.701,1.163,0.503,0.916,0.851,�k�k��,5.5,�L
2017/08/19,22:00,0.906,1.420,0.943,1.702,1.160,0.503,0.917,0.851,�k�k��,3.5,��
2017/08/19,22:10,0.905,1.417,0.943,1.702,1.160,0.504,0.916,0.853,�k�k��,3.3,��
2017/08/19,22:20,0.908,1.421,0.946,1.705,1.159,0.504,0.916,0.853,�k�k��,3.1,��
2017/08/19,22:30,0.907,1.422,0.945,1.704,1.163,0.503,0.917,0.855,�k�k��,3.5,�L
2017/08/19,22:40,0.907,1.421,0.945,1.702,1.161,0.503,0.916,0.852,�k�k��,2.6,�L
2017/08/19,22:50,0.907,1.420,0.945,1.701,1.160,0.503,0.917,0.853,�k�k��,2.8,�L
2017/08/19,23:00,0.906,1.417,0.945,1.702,1.161,0.503,0.914,0.852,�k�k��,2.6,�L
2017/08/19,23:10,0.905,1.413,0.945,1.702,1.162,0.502,0.914,0.852,�k�k��,3.0,�L
2017/08/19,23:20,0.904,1.413,0.941,1.700,1.159,0.504,0.915,0.852,�k�k��,3.1,�L
2017/08/19,23:30,0.903,1.411,0.941,1.696,1.156,0.501,0.915,0.852,�k�k��,3.3,�L
2017/08/19,23:40,0.899,1.407,0.939,1.697,1.157,0.503,0.915,0.850,�k�k��,4.2,�L
2017/08/19,23:50,0.899,1.404,0.937,1.694,1.157,0.501,0.914,0.849,�k�k��,3.2,�L
